This is the latest recevied weather packets stored in our database for station/object YO6LRV-6. If no packets are shown the sender has not sent any weather packets the latest 10 day(s).
| Time | Temp. | Humidity | Pressure | Rain* | Wind** | Luminosity | Snow |
|---|---|---|---|---|---|---|---|
| 1777769552 | 2.78° C | 69% | 1039.8 hPa | - | - | - | - |
| 1777768652 | 2.78° C | 71% | 1039.8 hPa | - | - | - | - |
| 1777767754 | 2.78° C | 70% | 1039.9 hPa | - | - | - | - |
| 1777766854 | 2.78° C | 68% | 1039.9 hPa | - | - | - | - |
| 1777765954 | 3.33° C | 68% | 1039.9 hPa | - | - | - | - |
| 1777765054 | 3.33° C | 69% | 1040 hPa | - | - | - | - |
| 1777764153 | 3.33° C | 71% | 1040 hPa | - | - | - | - |
| 1777763253 | 2.78° C | 71% | 1040.1 hPa | - | - | - | - |
| 1777762353 | 2.78° C | 71% | 1040.1 hPa | - | - | - | - |
| 1777761453 | 3.33° C | 69% | 1040.2 hPa | - | - | - | - |
| 1777760553 | 3.89° C | 67% | 1040.2 hPa | - | - | - | - |
| 1777759653 | 4.44° C | 65% | 1040.2 hPa | - | - | - | - |
| 1777758753 | 4.44° C | 64% | 1040.1 hPa | - | - | - | - |
| 1777757853 | 4.44° C | 64% | 1040.2 hPa | - | - | - | - |
| 1777756952 | 5° C | 62% | 1040 hPa | - | - | - | - |
| 1777756052 | 5° C | 61% | 1039.9 hPa | - | - | - | - |
| 1777755152 | 5.56° C | 60% | 1040 hPa | - | - | - | - |
| 1777754252 | 5.56° C | 59% | 1039.9 hPa | - | - | - | - |
| 1777753352 | 5.56° C | 60% | 1039.9 hPa | - | - | - | - |
| 1777752454 | 5.56° C | 61% | 1039.9 hPa | - | - | - | - |
| 1777751552 | 6.11° C | 62% | 1039.8 hPa | - | - | - | - |
| 1777750652 | 6.11° C | 62% | 1039.7 hPa | - | - | - | - |
| 1777749751 | 6.11° C | 63% | 1039.7 hPa | - | - | - | - |
| 1777748851 | 6.67° C | 61% | 1039.8 hPa | - | - | - | - |
| 1777747951 | 6.67° C | 61% | 1039.6 hPa | - | - | - | - |
* Rain since midnight (hover to see other rain measurements)
** Current wind speed in m/s (hover to see current wind gust speed)